FW2397 Weather Reports


time (UTC)temp
F
wind
direction
speed
knots
gust
knots
rain 1hr
in
rain 24hr
in
rain mn
in
humidity
%
barometer
mb
20200531053058 80 75 5.2 10.4 0.00 0.00 0.00 48 1014.3
20200531051550 80 74 6.1 9.6 0.00 0.00 0.00 44 1014.4
20200531050050 80 72 5.2 10.4 0.00 0.00 0.00 43 1014.5
20200531044556 80 72 5.2 10.4 0.00 0.00 0.00 41 1014.6
20200531043219 81 80 5.2 9.6 0.00 0.00 0.00 39 1014.8
20200531041532 81 84 6.1 10.4 0.00 0.00 0.00 37 1015.1
20200531040039 81 76 5.2 8.7 0.00 0.00 0.00 35 1015.2
20200531034553 82 75 3.5 7.8 0.00 0.00 0.00 34 1015.5
20200531033017 82 78 4.3 7.8 0.00 0.00 0.00 34 1015.5
20200531031539 82 71 3.5 7.8 0.00 0.00 0.00 35 1015.6
20200531030016 82 86 0.0 0.0 0.00 0.00 0.00 32 1015.6
20200531024515 82 97 0.0 0.0 0.00 0.00 0.00 31 1015.4
20200531023017 83 102 0.0 6.1 0.00 0.00 0.00 27 1015.2
20200531021513 83 98 5.2 13.9 0.00 0.00 0.00 27 1015.1
20200531020022 83 117 6.1 13.0 0.00 0.00 0.00 28 1014.9
20200531014529 84 110 7.0 15.6 0.00 0.00 0.00 23 1014.7
20200531013015 84 116 7.8 13.9 0.00 0.00 0.00 20 1014.6
20200531011521 84 111 7.8 13.9 0.00 0.00 0.00 24 1014.6
20200531010025 83 126 7.8 13.0 0.00 0.00 0.00 30 1014.6
20200531003007 83 103 6.1 12.2 0.00 0.00 0.00 39 1014.6
20200531001507 83 140 6.1 10.4 0.00 0.00 0.00 43 1014.5
20200531000010 83 110 5.2 11.3 0.00 0.00 0.00 42 1014.4
20200530234534 83 134 6.1 10.4 0.00 0.00 0.00 38 1014.3
20200530233004 83 144 7.8 11.3 0.00 0.00 0.00 41 1014.2
20200530231504 83 140 4.3 11.3 0.00 0.00 0.00 42 1014.1
20200530230012 83 110 6.1 11.3 0.00 0.00 0.00 47 1014.0
20200530224501 83 94 7.0 13.0 0.00 0.00 0.00 52 1014.0
20200530223004 84 131 6.1 13.0 0.00 0.00 0.00 53 1013.8
20200530221505 84 108 7.0 12.2 0.00 0.00 0.00 56 1013.7
20200530220240 84 126 7.0 13.9 0.00 0.00 0.00 60 1013.6
20200530220002 84 120 7.8 13.9 0.00 0.00 0.00 60 1013.5
20200530214809 84 139 7.0 15.6 0.00 0.00 0.00 56 1013.7
20200530213201 84 141 6.1 12.2 0.00 0.00 0.00 51 1013.8
20200530211658 84 148 7.0 12.2 0.00 0.00 0.00 52 1013.9
20200530210335 84 116 6.1 13.0 0.00 0.00 0.00 46 1013.9
20200530204751 84 119 7.8 13.0 0.00 0.00 0.00 48 1013.9
20200530203237 85 97 9.6 13.0 0.00 0.00 0.00 46 1014.0
20200530201645 85 126 8.7 13.9 0.00 0.00 0.00 47 1014.0
20200530200218 85 104 7.8 13.0 0.00 0.00 0.00 48 1014.0
20200530194623 85 128 9.6 17.4 0.00 0.00 0.00 53 1013.9
20200530193147 85 121 9.6 14.8 0.00 0.00 0.00 52 1014.1
20200530191714 85 121 11.3 17.4 0.00 0.00 0.00 51 1014.1
20200530190118 85 106 9.6 15.6 0.00 0.00 0.00 48 1014.1
20200530184713 85 130 9.6 16.5 0.00 0.00 0.00 52 1014.1
20200530183136 85 124 7.8 14.8 0.00 0.00 0.00 50 1014.3
20200530181556 85 111 8.7 14.8 0.00 0.00 0.00 47 1014.5
20200530180157 85 117 8.7 14.8 0.00 0.00 0.00 51 1014.6
20200530174631 85 145 7.8 12.2 0.00 0.00 0.00 53 1014.7
20200530173123 86 164 4.3 13.9 0.00 0.00 0.00 53 1014.7
20200530171656 86 128 9.6 13.0 0.00 0.00 0.00 59 1014.8
20200530170056 86 120 7.0 13.9 0.00 0.00 0.00 57 1015.0
20200530164554 86 115 7.8 15.6 0.00 0.00 0.00 59 1015.0
20200530163130 86 123 7.8 12.2 0.00 0.00 0.00 58 1015.1
20200530161604 85 140 7.8 14.8 0.00 0.00 0.00 57 1015.2
20200530160039 85 116 8.7 13.9 0.00 0.00 0.00 54 1015.3
20200530154621 85 117 7.8 13.0 0.00 0.00 0.00 53 1015.5
20200530153136 85 132 7.0 12.2 0.00 0.00 0.00 53 1015.5
20200530151554 85 126 7.8 15.6 0.00 0.00 0.00 50 1015.5
20200530150041 85 133 8.7 14.8 0.00 0.00 0.00 52 1015.6
20200530144538 85 150 9.6 13.9 0.00 0.00 0.00 57 1015.8
20200530143048 85 153 7.0 13.9 0.00 0.00 0.00 56 1015.8
20200530141532 85 137 6.1 13.9 0.00 0.00 0.00 53 1015.8
20200530140024 84 129 7.8 13.0 0.00 0.00 0.00 53 1015.9
20200530134524 85 124 6.1 14.8 0.00 0.00 0.00 54 1016.0
20200530133016 84 106 7.8 13.0 0.00 0.00 0.00 52 1016.0
20200530131529 83 117 4.3 12.2 0.00 0.00 0.00 53 1016.0
20200530130007 83 120 7.0 13.0 0.00 0.00 0.00 54 1016.0
20200530124507 84 133 7.8 12.2 0.00 0.00 0.00 55 1016.1
20200530123003 83 119 5.2 11.3 0.00 0.00 0.00 52 1016.0
20200530121759 83 116 4.3 8.7 0.00 0.00 0.00 52 1016.0
20200530120257 82 94 6.1 11.3 0.00 0.00 0.00 50 1016.0
20200530114749 82 80 6.1 11.3 0.00 0.00 0.00 48 1016.0
20200530113224 81 101 6.1 11.3 0.00 0.00 0.00 44 1015.9
20200530111640 81 66 5.2 11.3 0.00 0.00 0.00 42 1015.7
20200530110129 81 75 7.8 10.4 0.00 0.00 0.00 41 1015.6
20200530104607 80 89 5.2 9.6 0.00 0.00 0.00 34 1015.5
20200530103053 80 87 4.3 7.8 0.00 0.00 0.00 30 1015.3
20200530101559 80 101 5.2 8.7 0.00 0.00 0.00 28 1015.0
20200530100107 80 79 3.5 8.7 0.00 0.00 0.00 29 1014.7
20200530094607 80 76 4.3 8.7 0.00 0.00 0.00 30 1014.7
20200530093102 80 71 5.2 9.6 0.00 0.00 0.00 31 1014.3
20200530091634 80 82 6.1 8.7 0.00 0.00 0.00 31 1014.1
20200530090042 80 73 4.3 7.8 0.00 0.00 0.00 29 1014.2
20200530084531 79 62 3.5 7.8 0.00 0.00 0.00 31 1014.1
20200530083108 79 69 3.5 7.0 0.00 0.00 0.00 30 1014.2
20200530081534 79 59 2.6 7.0 0.00 0.00 0.00 30 1014.2
20200530080032 79 62 2.6 5.2 0.00 0.00 0.00 29 1014.1
20200530074555 80 40 3.5 7.8 0.00 0.00 0.00 29 1014.1
20200530073044 80 70 2.6 7.0 0.00 0.00 0.00 26 1013.9
20200530071602 80 71 4.3 7.8 0.00 0.00 0.00 27 1014.0
20200530070033 80 102 5.2 7.8 0.00 0.00 0.00 25 1014.0
20200530064600 80 86 4.3 9.6 0.00 0.00 0.00 25 1014.1
20200530063015 80 81 4.3 9.6 0.00 0.00 0.00 27 1014.2
20200530061551 81 78 4.3 11.3 0.00 0.00 0.00 27 1014.4
20200530060032 80 77 6.1 8.7 0.00 0.00 0.00 26 1014.3
20200530054508 80 49 5.2 10.4 0.00 0.00 0.00 26 1014.3